Flag Weather past 2 weeks in Tianjin, Tianjin Municipality, China

Now
41 °F

Fog.


Feels Like: 36 °F
Forecast: 40 / 46 °F
Wind: 8 mph from North

Location: Tianjin / Zhangguizhu

Current Time: Nov 26, 2014 at 8:52:35 PM

Latest Report: Nov 26, 2014 at 8:00 PM


Visibility: 0 mi

Pressure: 30.09 "Hg

Humidity: 87%

Dew point: 37 °F

Location of TianjinLocation

Historic Weather in Tianjin — Graph

°F

Tianjin temperature yesterday

Maximum temperature yesterday: 50 °F (at 1:00 PM)
Minimum temperature yesterday: 32 °F (at 2:30 AM)
Average temperature yesterday: 40 °F

Past Weeks' High & Low Weather Summary

 TemperatureHumidityPressure
High57 °F (Nov 18, 2:00 PM)100% (Nov 21, 2:30 AM)30.48 "Hg (Nov 21, 2:30 AM)
Low30 °F (Nov 13, 5:30 AM)12% (Nov 12, 1:00 PM)29.98 "Hg (Nov 26, 3:30 AM)
Average43 °F56%30.26 "Hg
* Reported Nov 11 7:00 PM — Nov 26 7:30 PM, Tianjin, Weather by CustomWeather, © 2014

Note: Actual official high and low records may vary slightly from our data, if they occured in-between our weather recording intervals... More about our weather records

Advertising

Tianjin weather history for previous 24 hours

 ConditionsComfort  
Time TempWeatherWind HumidityBarometerVisibility
7:30 PM
Nov 26
39 °FFog.3 mph93%30.07 "Hg1 mi
7:00 PM43 °FFog.1 mph81%30.07 "Hg1 mi
6:30 PM39 °FFog.8 mph87%30.07 "Hg1 mi
6:00 PM45 °FFog.1 mph76%30.04 "Hg1 mi
5:30 PM45 °FFog.1 mph81%30.04 "Hg1 mi
5:00 PM46 °FHaze.No wind71%30.01 "Hg1 mi
4:30 PM48 °FHaze.1 mph71%30.01 "Hg1 mi
4:00 PM50 °FHaze.3 mph67%30.01 "Hg1 mi
3:30 PM50 °FHaze.3 mph67%30.01 "Hg1 mi
3:00 PM50 °FHaze.6 mph67%29.98 "Hg1 mi
2:30 PM50 °FHaze.6 mph67%29.98 "Hg1 mi
2:00 PM50 °FHaze.3 mph62%29.98 "Hg1 mi
1:30 PM50 °FHaze.3 mph62%30.01 "Hg1 mi
1:00 PM50 °FHaze.1 mph62%29.98 "Hg1 mi
12:30 PM48 °FHaze.1 mph66%29.98 "Hg1 mi
12:00 PM46 °FFog.3 mph71%30.01 "Hg1 mi
11:30 AM46 °FFog.8 mph71%30.01 "Hg1 mi
11:00 AM45 °FFog.8 mph76%30.01 "Hg1 mi
10:30 AM45 °FFog.10 mph76%30.04 "Hg1 mi
10:00 AM45 °FFog.6 mph76%30.04 "Hg1 mi
9:30 AM41 °FFog.3 mph81%30.04 "Hg1 mi
9:00 AM39 °FFog.3 mph81%30.04 "Hg1 mi
8:30 AM37 °FFog.3 mph87%30.01 "Hg1 mi
8:00 AM36 °FFog.3 mph87%30.01 "Hg1 mi
7:30 AM34 °FFog.3 mph87%30.01 "Hg1 mi
7:00 AM36 °FFog.3 mph81%30.01 "Hg1 mi
6:30 AM34 °FFog.1 mph81%29.98 "Hg1 mi
6:00 AM34 °FHaze.1 mph87%29.98 "Hg1 mi
5:30 AM36 °FHaze.1 mph81%29.98 "Hg1 mi
5:00 AM37 °FHaze.3 mph75%29.98 "Hg1 mi
4:30 AM39 °FHaze.3 mph70%29.98 "Hg1 mi
4:00 AM39 °FHaze.6 mph70%29.98 "Hg1 mi
3:30 AM41 °FHaze.3 mph66%29.98 "Hg2 mi
3:00 AM41 °FHaze.6 mph66%30.01 "Hg2 mi
2:30 AM39 °FHaze.6 mph70%30.01 "Hg2 mi
2:00 AM41 °FHaze.6 mph66%30.01 "Hg2 mi
1:30 AM41 °FHaze.6 mph66%30.01 "Hg2 mi
1:00 AM41 °FHaze.6 mph66%30.01 "Hg2 mi
12:30 AM41 °FHaze.6 mph66%30.01 "Hg3 mi
12:00 AM37 °FFog.3 mph81%30.01 "Hg2 mi
11:30 PM
Nov 25
36 °FFog.3 mph87%30.01 "Hg1 mi
11:00 PM37 °FFog.3 mph87%30.04 "Hg1 mi
10:30 PM37 °FFog.3 mph87%30.04 "Hg1 mi
10:00 PM37 °FFog.3 mph87%30.04 "Hg1 mi
9:30 PM37 °FFog.3 mph81%30.04 "Hg2 mi
9:00 PM39 °FFog.3 mph81%30.04 "Hg2 mi
8:30 PM37 °FFog.3 mph81%30.04 "Hg2 mi
8:00 PM39 °FFog.3 mph75%30.04 "Hg2 mi
Weather by CustomWeather, © 2014

See weather overviewHow to use our weather pages